#timestamp,LO_Frequency,Hit,StdDev 
1514800815.6,286046997.1,P
1514800835.4,286047000.1,N
1514800855.2,286046998.1,N
1514800875.1,286047000.5,N
1514800876.0,286047000.5,N
1514800895.8,286046998.7,N
1514800915.6,286046997.4,N
1514800935.5,286046998.0,N
1514800955.3,286046992.9,Y
1514800975.1,286046994.5,P
1514800995.9,286046997.2,N
1514801015.7,286046997.3,N
1514801035.5,286047002.3,N
1514801055.3,286046999.8,N
1514801075.2,286047000.4,N
1514801095.0,286047001.9,N
1514801095.9,286047001.9,N
1514801115.7,286047003.1,N
1514801135.6,286047002.3,N
1514801155.4,286047001.0,N
1514801175.2,286047005.1,N
1514801195.1,286047008.2,N
1514801196.0,286047008.2,N
1514801215.8,286047006.3,N
1514801235.6,286047006.2,N
1514801255.5,286047009.9,N
1514801275.3,286047010.9,N
1514801295.1,286047013.5,Y
1514801315.9,286047014.0,P
1514801335.7,286047014.8,N
1514801355.5,286047012.7,N
1514801375.4,286047009.4,N
1514801395.2,286047010.7,N
1514801415.0,286047012.3,Y
1514801415.9,286047012.3,P
1514801435.8,286047004.7,P
1514801455.6,286047010.7,P
1514801475.4,286047009.2,Y
1514801495.3,286046998.4,P
1514801515.1,286047000.7,N
1514801516.0,286047000.7,N
1514801535.8,286047003.9,N
1514801555.7,286047003.6,N
1514801575.5,286047002.8,N
1514801595.3,286047000.2,N
1514801615.2,286046998.8,N
1514801635.9,286047001.2,N
1514801655.7,286047003.6,N
1514801675.5,286046999.8,N
1514801695.4,286046996.9,N
1514801715.2,286046998.7,N
1514801735.0,286046998.6,N
1514801735.9,286046998.6,N
1514801755.8,286046995.3,N
1514801775.6,286046994.8,N
1514801795.4,286046996.3,N
1514801815.3,286046996.2,N
1514801835.1,286046994.6,N
1514801836.0,286046994.6,N
1514801855.8,286046994.7,N
1514801875.7,286046990.1,N
1514801895.5,286046994.6,N
1514801915.3,286046995.4,N
1514801935.1,286046995.1,N
1514801955.9,286046997.5,N
1514801975.7,286046999.3,N
1514801995.5,286046998.2,N
1514802015.4,286046999.9,N
1514802035.2,286046998.5,N
1514802055.0,286047001.3,N
1514802055.9,286047001.3,N
1514802075.8,286047000.3,N
1514802095.6,286046999.5,N
1514802115.4,286046995.3,N
1514802135.3,286047001.2,N
1514802155.1,286047000.6,N
1514802156.0,286047000.6,N
1514802175.8,286046998.2,N
1514802195.7,286047002.1,N
1514802215.5,286047001.9,N
1514802235.3,286046999.8,N
1514802255.2,286046995.5,N
1514802275.9,286046994.5,N
1514802295.7,286046996.1,N
1514802315.5,286046995.9,N
1514802335.4,286046995.7,N
1514802355.2,286046997.0,N
1514802375.0,286046999.6,N
1514802375.9,286046999.6,N
1514802395.8,286046998.9,N
1514802415.6,286046999.0,N
1514802435.4,286046999.2,N
1514802455.3,286046997.8,N
1514802475.1,286046996.3,N
1514802476.0,286046996.3,N
1514802495.8,286046997.8,N
1514802515.7,286046999.1,N
1514802535.5,286046998.8,N
1514802555.3,286046996.3,N
1514802575.2,286046993.3,Y
1514802595.9,286046995.9,P
1514802615.7,286046992.2,P
1514802635.6,286046993.4,N
1514802655.4,286046995.8,N
1514802675.2,286046995.3,N
1514802695.1,286046994.7,N
1514802696.0,286046994.7,N
1514802715.8,286046993.7,Y
1514802735.6,286047001.3,P
1514802755.5,286047002.6,N
1514802775.3,286047000.2,N
1514802795.1,286047000.0,N
1514802815.9,286047000.6,N
1514802835.7,286047000.1,N
1514802855.5,286046998.1,N
1514802875.3,286046997.7,N
1514802895.2,286046998.1,N
1514802915.9,286047000.7,N
1514802935.7,286047002.5,N
1514802955.6,286046998.1,N
1514802975.4,286046999.3,N
1514802995.2,286047002.8,N
1514803015.1,286046999.6,N
1514803016.0,286046999.6,N
1514803035.8,286046995.5,N
1514803055.6,286046995.5,N
1514803075.5,286046994.9,N
1514803095.3,286046994.0,N
1514803115.1,286046993.4,N
1514803135.8,286046993.8,N
1514803155.7,286046994.8,N
1514803175.5,286046993.0,N
1514803195.3,286046993.2,N
1514803215.2,286046994.1,N
1514803235.9,286046994.2,N
1514803255.7,286046994.5,N
1514803275.6,286046992.5,N
1514803295.4,286046994.3,N
1514803315.2,286046998.0,N
1514803335.1,286046993.4,N
1514803336.0,286046993.4,N
1514803355.8,286046995.6,N
1514803375.6,286046995.7,N
1514803395.4,286046992.4,N
1514803415.3,286046994.6,N
1514803435.1,286046994.7,N
1514803455.8,286046994.3,N
1514803475.7,286046987.6,Y
1514803495.5,286046992.3,P
1514803515.3,286046993.8,P
1514803535.2,286046997.6,N
1514803555.9,286046995.7,N
1514803575.7,286046998.8,N
1514803595.6,286046999.3,N
1514803615.4,286046998.8,N
1514803635.2,286046994.1,N
1514803655.1,286046993.0,N
1514803656.0,286046993.0,N
1514803675.8,286046991.3,Y
1514803695.6,286046995.6,P
1514803715.5,286046995.8,P
1514803735.3,286046995.4,P
1514803755.1,286046994.9,Y
1514803775.9,286047000.5,P
1514803795.7,286046998.6,N
1514803815.5,286047005.9,N
1514803835.4,286047003.4,N
1514803855.2,286047002.9,N
1514803875.0,286047003.0,N
1514803875.9,286047003.0,N
1514803895.8,286047004.1,N
1514803915.6,286047002.8,N
1514803935.4,286046998.7,N
1514803955.2,286047001.7,N
1514803975.1,286047005.7,N
1514803976.0,286047005.7,N
1514803995.8,286047003.4,N
1514804015.6,286047001.5,N
1514804035.5,286047001.9,N
1514804055.3,286046998.3,N
1514804075.1,286046998.7,N
1514804095.9,286046999.2,N
1514804115.7,286046997.0,N
1514804135.5,286046999.6,N
1514804155.4,286046998.3,N
1514804175.2,286047000.9,N
1514804195.0,286047002.0,N
1514804195.9,286047002.0,N
1514804215.8,286046999.4,N
1514804235.6,286046995.6,N
1514804255.4,286046999.1,N
1514804275.2,286047002.4,N
1514804295.1,286047003.5,N
1514804296.0,286047003.5,N
1514804315.8,286047004.8,N
1514804335.6,286047002.6,N
1514804355.5,286047003.6,N
1514804375.3,286047003.6,N
1514804395.1,286047004.7,N
